Theta_e
327 330 330 331 331 328 327 326 325 326 326 324 323 322 323 328 322 318 330 342 334 331 333 335 339 342 341 341 340 339 339 337 339 343 349 358 365 362 358 355 353 352 353 357 360 361 363 362 361 362 364 363 362 361 358 356 356 357 357 357 357 359 361 362 358 351 347 345 344 344 343 345 347 350 355 358 359 359 360 358 357 357 355 353 351 349 348
327 329 329 330 331 329 328 328 327 326 327 325 324 325 326 327 326 326 331 338 336 332 332 333 336 338 337 337 338 338 338 336 339 346 347 349 356 361 360 357 353 350 352 356 358 361 363 362 362 362 364 364 363 361 359 356 355 357 358 357 357 358 360 362 360 356 351 347 346 346 347 347 348 350 353 358 359 360 360 359 359 358 357 356 354 352 350
325 329 330 329 329 329 327 327 328 328 327 327 325 326 326 325 327 328 328 331 332 331 332 334 335 335 335 338 339 338 339 338 337 343 342 338 343 355 360 359 352 346 349 355 358 360 361 361 362 362 363 364 363 362 361 357 355 356 358 358 358 357 360 361 361 358 355 352 351 350 350 350 351 352 355 358 360 361 360 359 359 358 357 357 355 353 352
323 327 329 328 328 329 325 324 328 328 326 326 326 327 327 326 326 327 325 325 328 332 333 333 334 335 335 337 338 337 338 339 337 338 339 337 343 352 356 356 354 349 347 352 356 357 358 360 362 363 364 365 364 363 363 360 357 357 358 359 358 358 359 361 362 360 356 355 356 355 354 354 354 356 358 359 361 361 360 359 359 359 358 357 356 354 353
322 327 328 327 327 324 322 324 328 328 329 329 328 329 330 329 327 326 323 324 331 336 335 333 332 334 335 337 337 336 336 339 339 338 337 335 341 347 345 346 353 354 350 349 350 350 352 356 358 360 363 365 364 363 363 362 360 359 359 360 360 359 360 362 363 362 358 359 361 360 358 357 357 359 360 360 361 361 359 358 359 359 358 357 356 354 352
321 325 327 326 324 321 323 329 330 330 330 329 328 328 330 331 330 328 327 329 334 336 334 333 334 335 337 338 336 335 336 338 340 340 338 336 336 341 343 344 351 356 355 352 348 347 348 350 352 356 362 366 365 364 364 364 362 361 362 363 361 360 361 363 364 363 362 363 362 361 360 359 359 360 360 361 361 360 359 358 358 358 358 356 356 354 352
321 324 325 323 321 323 329 333 333 332 330 330 331 330 331 332 331 332 334 334 334 335 333 332 334 335 334 333 332 333 334 335 336 337 338 338 335 336 342 349 354 355 357 357 353 350 349 350 354 358 361 365 366 365 365 365 363 361 363 364 363 362 363 363 364 365 365 364 362 361 361 360 360 361 360 360 361 360 358 358 357 358 358 356 355 354 352
322 322 323 322 324 328 332 333 333 333 333 332 330 328 329 332 330 332 336 336 337 339 336 331 331 332 331 331 331 332 331 332 334 334 334 335 336 336 336 345 352 352 351 354 354 352 353 355 358 360 361 365 368 367 365 364 363 362 364 365 364 363 363 363 365 366 365 363 361 361 361 361 361 361 360 360 360 359 357 357 357 357 357 355 355 354 352
324 321 321 324 326 327 330 333 333 335 336 335 332 329 332 334 331 333 339 340 339 339 337 334 333 333 333 333 333 331 331 330 332 333 332 332 334 335 333 335 343 345 342 346 350 352 355 358 359 361 363 366 369 368 366 364 364 364 365 365 365 364 364 365 366 367 365 363 361 361 361 361 360 360 360 360 359 357 356 355 355 355 354 354 354 354 352
324 323 322 325 324 323 329 335 336 336 335 335 336 333 333 337 336 337 342 342 339 339 339 339 340 341 341 337 334 332 331 330 330 330 332 331 331 333 334 332 334 339 340 342 346 349 353 356 359 362 365 367 369 369 367 366 365 365 366 367 368 367 367 367 367 367 365 362 361 361 359 359 359 360 360 358 356 355 355 354 353 353 353 353 353 353 350
323 323 323 325 323 325 333 339 338 337 335 335 336 330 330 340 345 342 343 343 341 342 344 344 344 345 343 339 335 332 330 330 332 331 331 332 331 331 333 331 332 338 340 341 347 352 355 357 359 362 365 367 369 369 369 366 365 366 368 370 370 367 367 368 366 364 363 362 361 360 356 355 357 358 356 355 354 354 354 354 353 352 352 352 352 351 348
326 325 325 325 326 330 338 339 336 336 336 336 334 326 329 345 350 344 344 345 344 346 348 347 346 344 342 342 339 335 333 331 331 332 332 333 333 332 332 332 334 339 342 344 351 357 358 358 359 362 365 369 371 370 369 368 368 369 369 370 369 366 367 368 366 364 364 362 360 358 356 356 357 355 352 349 350 351 352 352 352 351 350 350 350 348 346
327 328 326 326 328 335 341 338 336 337 336 333 329 327 335 347 346 341 344 344 344 347 348 348 349 347 344 344 339 334 334 332 334 337 337 337 336 333 334 339 343 349 354 354 356 358 358 358 362 365 367 370 371 371 370 370 369 368 368 369 368 367 368 368 365 364 364 360 357 357 356 354 353 351 347 345 346 348 350 351 350 349 349 348 346 344 342
326 327 327 325 328 334 337 335 335 337 335 330 331 336 343 344 341 341 344 343 344 347 347 348 350 348 346 345 341 338 337 335 338 340 336 335 339 338 338 346 351 355 360 360 358 359 361 363 364 367 368 371 372 372 371 370 369 367 367 368 369 368 367 366 363 362 360 358 357 357 354 350 347 347 346 344 344 347 348 348 347 347 346 344 343 341 340
325 324 324 324 327 332 333 335 337 336 334 335 339 342 342 341 342 343 344 346 347 348 346 347 348 347 346 346 343 341 340 339 340 343 339 336 341 348 354 357 356 358 360 360 360 362 366 368 369 369 370 372 373 372 370 369 369 368 368 368 367 365 363 361 360 358 357 357 356 353 349 346 344 345 346 344 344 346 345 345 345 344 343 342 340 340 339
324 321 323 327 332 335 332 336 340 340 339 340 342 341 339 340 342 342 343 346 347 347 348 349 348 346 346 348 349 349 349 347 345 348 350 345 341 351 362 364 363 363 363 363 365 367 370 371 370 370 372 373 371 370 369 368 367 367 367 366 362 358 356 355 354 352 352 352 350 346 344 344 345 345 345 345 345 346 345 343 343 342 342 341 340 339 339
329 328 331 335 338 339 336 337 340 340 339 339 339 339 339 338 338 340 342 345 346 349 351 352 352 350 350 352 356 356 356 357 356 359 363 360 354 357 362 364 365 367 367 367 368 368 369 370 369 370 371 370 368 368 368 367 367 366 364 359 353 349 348 346 343 342 343 344 344 343 343 344 344 345 345 345 346 345 344 343 342 341 341 340 340 340 340
339 339 340 338 339 339 335 336 338 337 336 336 337 338 338 337 339 342 345 346 348 349 350 351 353 351 351 353 354 354 356 358 358 360 363 362 360 362 364 364 365 367 368 368 367 367 368 368 368 369 368 367 367 367 367 365 363 359 354 348 343 340 338 336 334 335 337 340 342 343 342 342 343 343 344 345 345 344 343 342 342 341 341 340 340 340 340
340 341 341 340 340 340 337 336 336 335 335 336 337 338 338 338 342 345 345 346 347 347 348 349 349 347 348 350 351 352 354 355 354 355 355 357 359 363 365 365 364 365 366 365 365 367 367 367 368 368 367 366 364 363 361 358 352 345 339 337 335 334 334 335 335 336 338 341 344 346 347 347 347 347 346 345 344 343 343 342 342 342 341 341 341 341 341
339 337 338 339 338 338 338 336 337 336 336 337 337 337 338 339 340 341 341 342 342 343 343 344 345 345 345 346 347 348 350 352 354 353 352 353 355 358 361 363 362 363 364 364 365 366 366 367 367 365 363 362 360 359 355 347 339 335 334 334 333 334 336 337 339 342 344 344 344 346 348 348 347 347 345 344 344 343 343 343 343 341 341 342 342 342 341
338 336 337 339 338 337 336 336 337 336 336 336 335 335 336 336 337 337 336 336 337 337 337 338 339 340 340 342 344 346 347 349 350 351 352 354 353 352 354 358 360 362 362 362 362 362 362 362 361 359 358 357 356 352 346 338 334 334 335 333 334 336 339 341 344 345 346 345 344 344 346 346 346 345 344 343 344 344 343 343 343 342 341 342 341 341 341
338 337 337 339 339 337 337 336 335 334 334 334 333 332 332 332 333 333 333 333 333 333 333 334 335 336 336 338 339 341 344 346 347 347 348 351 353 354 353 353 355 357 358 357 356 356 356 356 355 355 355 353 348 341 335 334 334 334 334 335 338 340 343 346 347 346 346 345 344 344 344 345 345 345 343 343 344 344 343 343 343 342 342 342 341 341 340
336 336 337 338 337 336 335 334 334 333 332 332 331 331 330 330 330 330 330 329 329 330 330 331 331 332 333 334 335 336 339 341 344 346 345 346 349 352 350 348 351 354 355 354 353 352 352 351 350 350 349 343 337 334 334 334 334 334 335 339 341 342 345 346 345 345 345 345 345 344 344 344 345 344 344 343 343 343 343 342 342 342 341 341 340 340 339
334 335 336 336 334 333 331 331 332 332 331 330 330 330 329 329 329 328 327 327 326 325 326 328 329 329 330 331 332 332 333 335 339 343 345 346 348 348 347 348 352 355 356 355 354 353 353 352 351 351 350 344 338 335 335 336 337 337 340 342 343 344 345 343 340 341 344 345 345 344 344 343 343 344 344 343 342 342 342 342 341 340 340 339 339 340 339
334 334 334 333 331 330 329 329 329 329 328 328 329 329 328 327 326 326 326 326 324 323 323 323 323 325 328 329 330 330 330 331 333 335 339 343 346 348 351 352 353 354 355 355 355 355 355 355 355 354 353 349 342 337 338 340 339 339 342 345 345 346 345 342 340 343 345 344 343 343 343 342 342 343 343 342 342 341 341 340 340 339 339 339 339 339 338
333 332 331 331 330 329 328 328 327 327 327 326 327 328 327 326 324 324 325 325 324 324 323 321 319 319 321 324 327 329 328 329 330 332 333 336 339 344 347 350 351 352 352 353 354 354 353 353 353 352 352 351 348 344 343 344 343 343 346 347 345 346 345 342 342 344 345 344 343 343 342 340 341 341 341 341 341 340 340 340 339 339 338 338 338 338 337
331 331 330 330 330 329 329 328 326 325 325 324 325 325 325 324 324 324 324 324 324 323 322 321 320 318 317 318 320 322 322 323 325 329 330 330 333 338 342 345 348 349 348 348 349 349 349 349 350 350 352 351 349 347 344 343 344 347 348 346 344 345 345 342 341 342 342 342 341 341 340 340 340 340 340 340 340 340 339 339 339 338 338 337 336 336 335
327 328 329 329 329 328 327 327 326 326 326 325 324 323 323 323 324 324 324 324 323 322 322 321 320 319 319 318 316 316 316 314 317 325 330 327 326 333 340 343 345 346 346 347 348 348 348 346 346 347 349 347 346 344 341 339 342 345 347 345 344 344 343 341 340 340 340 340 340 338 338 339 339 339 339 339 339 338 338 338 338 338 338 337 336 335 334
323 325 326 326 326 325 325 325 326 326 327 326 325 323 322 321 320 319 321 323 322 321 322 324 323 320 319 319 319 318 316 313 314 323 327 323 318 323 331 337 341 344 345 346 347 347 345 342 337 336 339 340 340 339 338 338 341 343 345 345 344 343 342 341 341 340 340 339 340 339 337 338 338 338 338 338 337 336 336 336 336 336 336 336 336 335 334
321 322 324 324 324 324 323 323 324 325 325 325 325 325 325 324 321 318 318 319 320 319 320 324 327 325 320 318 317 316 316 318 321 326 326 319 314 315 317 322 329 336 339 343 345 346 345 344 340 336 336 339 339 337 337 338 339 340 342 343 342 342 341 341 340 339 337 337 339 339 337 337 338 338 337 337 336 335 335 335 334 332 331 332 333 332 332
322 323 324 324 324 324 323 322 323 324 324 325 325 324 325 326 325 323 320 319 320 319 316 319 324 326 323 321 320 317 315 318 324 328 327 321 316 315 314 313 317 322 326 333 341 343 343 344 344 341 341 343 342 340 340 341 341 340 341 342 341 341 341 339 339 338 336 336 337 336 335 336 337 337 336 336 335 335 335 336 334 332 330 330 331 331 331
323 324 324 324 324 324 324 323 324 324 324 324 324 324 324 323 324 325 324 323 322 320 317 317 321 324 324 323 323 322 320 320 323 326 325 322 321 320 316 313 313 315 315 321 333 339 341 341 343 342 342 342 342 341 342 344 343 342 341 340 339 340 340 339 339 339 338 336 335 334 334 336 336 336 337 336 335 335 335 335 334 332 331 331 331 330 330
323 323 323 323 324 324 324 324 324 324 324 323 323 323 324 324 323 324 324 324 324 323 322 322 323 324 324 323 323 323 323 322 323 324 323 322 322 319 314 312 314 314 312 313 320 329 333 336 339 342 343 342 341 341 342 343 343 341 340 340 339 338 338 338 338 339 339 338 335 334 335 336 337 337 337 336 335 335 334 334 333 333 332 332 331 330 329
323 323 323 323 323 323 323 323 323 323 323 323 322 323 324 324 323 324 323 324 324 324 324 324 325 325 325 325 325 325 324 324 324 324 323 321 319 317 317 319 319 317 316 316 315 319 328 334 337 340 342 342 341 341 341 342 342 340 339 339 339 338 338 337 337 339 340 339 336 336 337 337 337 337 336 336 336 335 334 333 333 332 332 332 331 329 327
323 323 323 322 322 322 322 322 322 322 322 322 322 323 324 323 323 324 324 324 324 325 325 325 325 325 326 326 326 326 326 326 326 326 325 324 322 321 323 325 323 323 327 327 320 319 326 331 333 335 338 340 340 339 338 340 341 340 338 338 338 338 337 336 336 338 339 339 338 338 338 337 337 336 336 336 335 334 333 332 332 331 331 331 330 328 326
322 323 323 322 322 322 322 322 322 322 322 322 322 323 323 323 323 323 324 324 325 325 326 326 326 326 326 327 327 326 326 327 327 326 326 326 325 325 327 327 326 327 331 330 325 324 329 331 330 331 334 337 337 337 336 337 339 339 339 338 338 338 338 337 337 338 338 338 338 338 337 336 336 335 335 334 334 333 332 331 331 331 331 330 329 327 327
323 323 323 322 322 322 322 323 323 322 322 323 323 323 323 323 324 324 324 324 325 326 326 326 326 327 327 327 327 327 327 327 328 327 326 326 326 327 328 329 329 331 332 330 328 329 332 332 331 331 332 334 335 335 335 335 337 338 339 339 338 338 338 338 337 337 337 336 336 336 335 335 335 334 333 332 331 331 330 330 330 330 329 329 328 327 327
323 323 323 323 323 323 322 322 322 322 322 323 323 324 324 324 324 324 324 325 325 326 326 326 327 327 327 327 327 327 327 327 328 328 327 327 326 327 327 327 328 330 331 330 329 329 330 331 332 332 333 334 334 334 333 333 335 337 338 338 337 337 336 335 335 335 335 334 333 333 333 333 333 332 330 329 330 329 329 329 329 329 328 328 327 326 326
323 323 323 323 323 323 322 322 322 322 323 323 324 324 324 324 324 325 325 325 325 325 326 326 327 327 327 327 327 327 327 327 327 328 328 328 328 328 328 327 327 328 329 330 330 330 331 332 333 333 333 334 334 333 332 333 334 335 336 336 335 335 334 333 333 333 333 332 332 331 331 330 330 329 328 329 329 329 329 329 329 328 328 327 327 326 326
322 322 323 323 323 322 322 323 323 323 323 323 323 324 324 324 324 325 325 326 325 325 325 326 326 326 326 327 327 327 327 327 327 328 328 328 328 329 329 329 329 330 330 330 330 330 330 331 332 333 333 333 333 333 333 333 334 335 335 334 334 334 333 333 333 332 332 332 330 329 329 329 329 329 328 329 329 328 328 327 327 326 326 325 325 324 324
321 322 322 322 323 323 323 323 323 323 323 324 323 324 324 324 324 324 325 325 325 325 325 325 325 326 326 326 326 326 327 327 327 328 328 328 328 329 329 329 329 329 329 328 329 330 330 330 331 332 332 332 332 333 333 333 333 334 334 333 333 332 332 332 331 331 331 331 329 328 329 329 328 328 328 328 327 326 326 325 324 323 323 323 323 322 322
321 321 321 322 322 322 322 323 323 323 323 323 323 323 323 323 324 324 324 324 324 324 324 325 325 325 325 325 326 326 326 327 326 327 328 328 328 329 329 328 328 328 328 329 329 330 330 330 331 331 331 330 330 331 331 331 331 331 331 331 331 331 331 331 330 329 330 329 328 328 328 328 327 326 326 325 324 324 324 323 322 320 320 321 321 320 320
320 320 320 320 321 321 321 321 321 321 321 322 322 321 321 322 322 322 322 323 323 322 323 323 324 324 325 325 325 325 325 325 326 326 327 328 328 328 328 327 327 328 329 329 329 330 330 330 330 329 329 329 329 329 329 329 329 329 329 329 330 329 329 329 329 329 329 328 327 327 327 326 325 324 324 323 323 322 321 321 320 319 319 318 318 318 318
319 319 319 320 320 320 320 320 320 319 319 320 320 319 319 320 320 321 321 321 321 321 320 321 321 322 323 324 324 324 324 324 324 325 326 327 327 326 327 327 327 327 327 327 327 327 327 327 327 327 326 327 327 327 328 328 328 328 328 328 328 328 328 328 328 328 327 326 325 325 324 323 323 322 321 321 321 320 319 319 318 317 317 317 317 316 316
319 319 319 319 319 319 319 319 319 318 318 318 318 318 318 318 319 319 320 320 320 319 319 318 319 320 321 321 322 322 323 323 323 323 325 326 326 325 325 326 326 325 326 327 326 325 324 325 325 325 325 326 326 326 327 327 327 327 327 327 326 326 326 326 326 326 325 324 324 324 323 322 321 320 320 319 319 318 318 318 317 316 315 315 315 315 314
319 319 319 319 319 318 318 317 317 317 317 317 317 317 317 317 317 317 318 319 319 318 318 317 317 317 319 319 319 319 320 321 321 321 322 323 324 324 323 322 321 321 324 325 325 324 323 323 324 324 325 325 325 325 325 326 326 326 326 326 326 325 325 324 324 324 324 323 323 322 321 320 320 320 319 319 317 316 316 316 315 315 314 314 314 314 314
319 319 319 319 318 318 317 317 317 317 317 317 317 317 317 316 316 316 317 317 317 317 317 316 316 316 317 318 317 316 317 318 318 318 319 321 322 322 321 319 317 318 322 324 324 322 321 321 322 323 323 324 323 324 324 323 323 324 324 324 324 324 323 323 323 322 322 322 321 320 320 319 319 318 318 317 316 315 315 314 314 314 314 314 314 313 313
318 318 318 318 318 318 317 317 317 317 317 316 316 317 317 317 316 316 316 316 316 316 316 316 316 316 316 317 317 316 315 316 317 317 317 318 319 319 320 319 317 317 319 322 323 322 321 320 320 320 320 321 322 323 323 322 321 321 321 321 322 322 321 321 321 321 321 320 319 318 318 318 317 316 316 316 315 315 314 314 314 314 314 314 314 313 313
317 317 317 317 318 318 317 317 317 317 317 316 316 317 317 316 316 316 316 315 316 316 316 316 315 315 315 316 317 316 315 316 316 316 316 316 316 317 317 319 319 318 317 319 321 321 321 319 319 319 319 319 320 322 322 321 320 319 318 318 319 319 319 320 320 319 319 318 317 317 317 316 316 315 315 315 315 315 314 314 314 314 314 314 313 313 313
317 317 318 317 317 317 317 317 317 317 317 317 316 316 317 316 316 316 316 316 316 316 316 316 315 315 316 316 317 316 316 316 315 315 315 315 315 315 316 317 317 317 317 318 319 320 320 319 319 319 318 319 320 322 322 321 320 319 318 317 317 317 317 317 317 317 317 317 316 316 315 315 315 315 315 315 315 315 314 314 314 314 314 314 314 314 313
318 318 318 317 317 317 317 317 317 317 317 317 316 316 317 316 316 316 316 316 316 316 316 316 316 315 315 315 316 316 316 316 316 315 315 314 314 315 315 316 316 317 318 318 318 319 319 319 319 319 319 320 321 321 321 321 320 320 319 318 318 317 317 317 316 316 316 316 316 316 315 315 314 314 314 314 314 314 314 314 314 314 314 314 314 314 314
317 317 317 316 317 317 317 317 316 316 316 316 316 316 316 316 316 316 316 316 315 316 316 316 315 315 315 315 315 315 316 316 315 315 315 315 315 315 315 316 316 316 317 317 318 318 319 319 319 319 319 319 320 320 320 320 320 320 320 319 318 318 317 317 317 316 316 316 316 315 315 315 315 315 314 314 314 314 314 314 314 315 314 314 314 314 313
Wind_Speed
24 22 20 20 17 16 17 19 20 21 22 23 22 19 18 15 11 11 11 11 10 13 16 17 11 8 11 10 10 14 16 15 13 12 12 16 20 23 26 28 29 28 27 28 32 35 35 38 40 39 39 41 40 39 41 41 38 38 39 41 41 41 39 38 39 39 39 38 37 37 37 37 37 36 35 34 34 34 35 34 33 34 34 34 36 37 39
21 24 24 23 20 18 18 20 21 20 21 23 23 21 22 21 19 17 15 12 12 13 15 19 17 15 15 11 11 16 19 21 19 13 15 18 15 16 21 25 26 26 27 27 29 32 33 36 39 40 39 40 41 39 40 42 40 38 39 41 41 42 41 39 38 37 37 37 36 36 37 37 36 36 36 34 34 34 34 33 33 32 30 30 33 35 37
15 21 24 25 23 20 20 20 20 20 22 24 24 21 21 20 19 20 19 14 13 12 13 16 18 20 22 15 10 15 20 24 25 20 22 27 24 22 22 24 25 24 26 29 30 31 34 36 39 40 40 40 41 39 38 42 42 39 39 41 42 42 42 39 38 37 35 35 36 36 37 36 36 36 35 35 34 33 33 32 33 32 30 30 32 32 33
11 17 20 24 24 21 22 22 21 23 23 21 18 16 16 17 16 16 17 14 11 10 11 14 14 16 19 17 14 17 18 22 26 25 26 27 28 31 29 25 25 26 27 30 32 34 36 37 38 41 40 40 41 40 39 41 42 39 39 42 42 42 42 40 39 38 36 36 35 35 35 35 35 35 34 34 34 33 33 32 32 31 30 30 32 32 30
11 15 17 17 17 17 18 19 21 23 21 19 16 12 16 21 17 13 12 10 7 7 10 12 13 14 16 15 16 20 20 19 20 21 25 27 25 30 32 29 29 30 31 33 33 33 35 36 38 40 41 41 42 42 41 41 41 39 39 42 43 42 42 40 39 39 37 36 34 33 32 31 32 32 32 32 32 32 31 30 31 31 30 29 30 31 31
11 15 16 14 14 14 12 11 16 20 21 22 19 18 20 21 16 13 13 12 11 10 10 11 12 13 13 12 16 21 22 19 15 15 21 27 27 26 30 35 35 32 33 34 31 30 31 32 34 37 39 40 40 40 39 39 40 39 39 41 43 43 42 40 39 39 37 36 33 31 30 29 29 29 29 29 30 29 27 27 29 31 31 31 30 30 31
10 11 13 14 14 13 11 10 12 15 19 22 21 21 22 19 17 14 9 9 12 12 12 12 12 15 20 20 18 20 24 25 22 22 24 26 27 25 24 32 37 35 33 33 31 28 28 29 31 34 38 38 38 39 39 39 41 40 39 40 42 42 42 40 39 38 36 34 31 29 29 28 27 28 29 29 29 28 27 26 27 30 31 32 31 31 31
9 9 12 12 11 10 11 12 13 12 15 19 20 21 21 19 20 14 6 7 8 6 9 19 21 23 27 26 23 22 26 30 29 29 28 26 25 24 22 25 31 32 30 31 30 28 28 29 30 32 35 36 36 38 39 40 41 41 39 40 41 42 42 41 40 38 36 33 30 29 29 27 27 28 29 28 28 27 26 25 25 27 29 30 30 30 30
9 10 11 10 9 11 12 12 10 6 5 7 8 10 12 13 15 10 6 8 10 12 10 12 15 19 22 18 18 25 30 33 35 36 34 32 30 29 28 28 28 29 29 29 29 28 27 29 30 30 33 35 35 37 40 40 41 41 40 40 41 41 42 40 39 37 35 32 30 30 29 27 27 27 26 27 27 25 23 22 24 27 28 28 28 27 27
10 9 10 10 11 12 10 7 4 4 3 2 4 3 4 5 7 6 7 8 9 12 13 10 10 10 10 8 11 23 32 34 35 37 37 36 37 36 34 35 36 34 34 32 31 31 30 29 30 30 33 35 36 38 41 42 42 42 41 40 40 40 39 38 36 34 32 31 30 29 28 27 26 24 22 23 23 22 20 18 20 24 26 25 26 25 24
10 10 10 10 10 9 7 6 5 4 2 1 4 2 4 3 8 9 9 8 8 9 11 12 11 8 6 4 6 19 28 28 27 31 35 38 40 39 38 40 40 37 37 35 33 33 33 31 31 32 33 36 39 40 42 43 43 42 40 37 38 39 35 32 31 30 29 30 29 27 25 24 23 21 21 20 20 21 21 20 20 22 23 23 25 27 24
9 10 9 8 7 5 7 8 6 5 4 2 1 4 4 5 10 10 10 8 8 9 12 11 8 5 5 7 13 20 22 22 25 28 30 32 35 37 38 40 40 36 36 36 35 35 33 32 32 34 35 38 40 41 41 42 43 43 39 34 33 34 30 28 28 28 28 30 29 25 23 22 22 21 19 19 20 21 21 22 23 23 22 21 22 22 20
9 9 9 8 7 5 7 7 5 4 5 5 6 5 1 5 8 10 10 9 9 10 11 9 7 9 12 14 22 30 27 22 21 22 21 18 18 25 31 30 26 28 32 33 33 33 31 31 33 35 37 38 39 40 40 40 40 41 38 32 31 31 29 28 28 27 27 28 28 24 21 21 21 19 16 16 18 19 20 21 22 23 22 19 16 14 13
10 10 9 8 6 5 7 9 9 7 5 6 4 1 3 5 9 11 12 12 13 13 13 11 11 15 18 20 23 26 28 27 23 19 21 16 12 16 23 23 21 24 25 26 28 28 28 31 34 36 38 38 38 39 39 38 38 38 36 34 34 33 31 28 27 26 25 25 25 23 21 19 18 16 16 16 16 17 19 19 19 20 20 17 14 13 12
9 9 11 9 6 6 9 10 9 7 5 1 4 5 5 7 11 14 14 16 17 17 17 17 17 17 18 21 23 25 27 25 19 13 16 17 7 6 8 17 22 23 23 24 26 26 26 29 33 35 37 38 38 37 37 36 37 37 36 36 36 34 32 29 27 26 26 25 25 24 20 16 15 16 16 15 14 14 16 16 15 16 17 15 13 12 10
9 10 9 5 2 4 8 8 4 4 5 9 9 7 5 8 12 13 14 17 19 19 20 20 20 18 16 15 17 16 14 10 5 6 8 14 17 10 8 13 16 19 24 25 25 25 27 29 32 34 35 37 36 35 35 36 38 39 38 38 37 35 32 30 28 27 27 27 25 21 18 16 16 16 15 14 13 14 15 14 14 14 14 13 12 10 11
3 2 1 1 3 3 6 7 8 10 12 12 10 8 7 7 9 10 11 14 17 19 19 19 18 17 15 14 14 12 10 8 3 1 2 7 14 14 13 13 14 17 21 24 25 26 27 30 32 32 34 37 37 36 37 38 40 40 40 39 37 34 32 30 27 26 25 25 23 19 17 16 15 14 13 13 14 15 14 12 12 12 12 12 13 14 16
4 7 7 7 7 5 7 9 8 10 10 9 9 10 9 8 8 10 12 14 16 19 19 18 18 18 17 15 13 11 9 9 5 3 4 2 9 14 15 16 17 19 21 23 25 26 28 30 32 32 35 39 40 40 39 38 39 39 38 36 34 31 28 26 24 22 22 22 22 19 17 16 14 13 13 13 13 13 12 12 13 13 13 13 15 17 19
3 4 7 10 12 8 6 10 11 13 15 13 13 12 11 11 13 14 16 18 19 21 21 19 18 18 17 14 13 12 10 7 4 4 8 6 5 12 17 20 20 21 23 25 26 29 30 31 32 35 38 40 39 37 35 34 35 35 34 32 30 28 26 23 21 20 21 21 20 19 17 15 15 15 14 13 12 12 12 14 14 15 15 14 16 18 18
5 2 3 9 18 18 14 14 15 17 19 19 19 19 18 17 18 19 21 22 23 25 25 23 22 22 21 19 17 15 12 10 7 2 3 4 2 3 11 20 24 25 27 28 30 31 31 31 34 39 39 35 31 30 31 32 33 33 31 29 28 26 25 23 20 20 20 19 18 18 17 15 15 14 13 11 12 12 13 15 16 15 15 16 18 18 18
6 5 3 4 15 18 18 19 19 18 20 22 23 24 23 22 21 23 25 25 25 26 27 28 29 29 27 25 22 19 16 12 9 7 5 9 8 3 5 15 23 27 29 30 29 29 28 29 34 36 34 30 29 31 33 32 30 29 28 26 25 24 23 21 19 18 17 15 14 15 17 17 16 15 14 14 15 16 16 17 18 17 16 17 18 17 16
3 4 1 2 8 9 12 17 18 17 18 21 22 23 24 24 23 23 24 25 25 26 28 30 31 31 30 28 27 25 21 15 11 12 11 10 11 11 11 15 21 25 27 28 28 29 29 30 31 31 29 29 29 29 28 25 24 24 24 23 23 22 21 19 18 17 15 13 12 12 15 18 18 17 17 18 18 19 18 18 19 18 16 16 17 16 17
2 4 4 5 9 11 10 15 17 16 17 19 22 22 22 22 22 23 23 24 24 25 26 28 28 28 27 27 29 29 24 17 14 14 13 12 15 16 16 18 21 24 27 29 29 30 29 29 28 28 26 26 25 24 22 21 20 20 20 22 21 21 20 18 16 16 16 13 11 11 12 16 18 19 19 20 20 19 19 18 18 17 15 14 15 16 17
4 7 9 11 14 15 13 13 15 16 16 17 20 20 20 20 21 23 24 24 24 24 25 27 27 27 25 25 25 26 25 21 18 15 12 13 17 19 18 19 22 25 27 28 28 28 27 26 26 25 23 23 22 21 20 20 19 18 19 19 19 19 19 16 12 15 16 14 14 14 13 15 18 21 20 20 20 19 18 17 16 16 16 15 15 16 16
6 10 15 18 19 18 15 14 15 14 14 16 18 18 19 20 20 22 23 23 23 23 23 23 24 24 24 25 24 24 25 24 22 21 19 20 21 22 22 22 23 24 25 25 25 25 24 23 22 21 21 19 19 19 20 20 19 19 19 18 18 19 19 15 15 18 19 17 15 16 14 13 17 21 21 19 19 19 19 17 16 16 17 17 16 16 15
11 14 18 21 20 17 15 15 15 14 12 13 16 16 17 17 18 20 21 21 21 21 20 20 20 19 19 21 22 22 22 22 22 22 23 24 25 24 23 22 22 22 22 22 22 21 19 18 17 18 19 17 16 18 20 21 20 19 17 16 18 19 19 17 20 22 22 18 15 14 13 14 17 20 20 18 17 18 19 19 18 17 18 19 18 18 17
15 16 14 15 16 16 16 15 15 15 14 12 12 13 13 14 16 17 17 17 18 19 18 17 16 15 15 16 18 19 20 20 21 23 25 24 24 25 23 20 19 19 20 20 19 18 17 17 17 17 16 15 14 15 17 19 20 18 15 15 17 19 20 20 21 21 19 16 14 13 13 14 16 16 16 16 15 15 16 18 19 19 20 20 20 19 19
20 15 12 14 16 18 18 15 14 16 17 16 14 12 10 10 13 15 15 14 14 16 18 18 16 14 14 14 15 18 20 21 22 24 25 23 20 22 24 23 19 18 19 19 18 17 16 15 15 14 11 10 11 10 11 15 18 17 16 16 18 19 19 17 17 18 16 14 13 12 12 13 13 13 13 14 13 12 12 14 17 20 21 21 20 20 20
24 21 19 19 19 18 18 17 15 15 15 15 15 15 13 13 15 17 17 17 16 15 17 19 18 15 14 13 13 15 18 21 22 23 23 20 16 16 20 21 19 18 18 18 16 13 12 11 10 8 7 7 6 4 8 15 18 17 18 18 18 18 17 16 16 17 17 15 13 12 11 11 13 14 13 13 12 11 11 13 15 17 18 19 19 20 20
21 21 20 19 18 17 18 18 17 15 14 13 14 15 15 16 18 19 18 18 19 18 17 17 17 16 16 15 14 13 14 17 19 18 18 18 15 12 12 12 12 14 16 17 15 13 9 8 7 5 5 6 4 4 7 14 16 15 15 16 16 17 18 19 18 17 17 17 16 15 12 12 14 14 14 15 14 13 14 16 15 13 13 16 17 17 17
19 19 19 19 18 18 18 17 15 15 14 14 15 15 15 16 17 18 18 19 20 18 16 15 15 16 16 16 15 12 11 13 15 15 15 16 14 12 11 9 8 9 10 11 11 11 9 7 4 3 5 6 5 6 8 11 13 14 15 16 16 17 19 19 18 17 17 18 18 17 16 15 15 15 15 16 15 15 16 17 14 9 9 13 15 16 16
16 18 19 18 18 17 16 16 15 15 15 15 15 16 16 16 17 17 17 18 18 17 14 13 14 14 14 14 14 13 12 12 13 13 15 15 14 12 11 9 6 6 4 3 5 6 7 7 4 1 4 6 6 7 10 12 15 16 15 16 17 18 18 18 17 16 16 16 17 17 17 16 15 16 16 16 15 16 17 17 13 8 8 10 14 16 16
15 16 15 15 15 15 14 14 14 14 15 15 15 15 15 15 16 15 14 13 13 12 11 10 10 10 10 11 12 13 13 11 11 11 13 14 13 12 12 10 9 7 5 2 1 3 4 4 2 2 6 7 7 8 10 13 15 15 13 14 17 20 19 18 16 15 15 15 15 16 17 16 16 17 16 16 15 16 16 16 15 12 10 12 14 15 13
14 13 12 11 12 13 13 13 13 13 14 15 15 14 14 14 13 13 12 11 10 10 9 7 7 7 7 9 10 11 11 11 10 10 12 13 14 12 11 10 10 10 9 7 3 2 3 1 3 3 5 6 8 9 9 11 13 13 12 13 16 20 21 19 16 14 15 15 15 16 17 17 17 17 16 15 14 13 13 14 14 13 13 14 14 12 10
13 12 12 12 12 12 12 12 12 12 13 13 14 14 14 13 12 12 11 10 10 10 9 9 8 7 8 10 11 9 9 9 9 9 9 10 10 9 10 9 8 6 7 8 6 2 1 4 7 7 7 6 7 9 10 11 12 13 13 13 15 17 19 19 16 14 14 15 15 16 16 15 15 16 15 14 13 12 12 12 12 12 13 15 13 11 9
12 12 12 12 13 13 13 13 12 12 12 12 13 13 13 12 11 10 9 9 9 10 9 9 9 9 9 10 10 7 7 8 8 7 6 6 7 8 8 7 6 4 1 1 2 1 3 7 9 10 9 7 6 8 10 11 11 12 14 15 15 14 15 16 14 14 14 15 16 17 16 14 14 15 14 13 12 11 11 11 11 11 12 13 11 10 10
13 12 12 12 12 12 12 12 12 12 12 13 13 13 12 11 10 9 9 9 9 9 9 9 10 10 9 9 8 7 7 7 7 6 4 4 4 4 3 2 4 6 3 4 4 2 5 6 7 8 8 7 6 8 10 10 10 11 13 15 15 15 15 15 14 14 14 14 15 16 16 15 15 15 13 11 10 10 11 11 10 10 10 9 9 9 10
12 12 12 11 11 12 12 12 12 12 13 13 13 12 11 10 10 9 10 10 10 9 9 9 10 10 10 10 9 8 7 7 6 6 5 3 3 3 1 0 1 5 4 0 3 3 4 3 2 4 5 3 4 9 10 9 10 11 12 12 13 14 14 14 13 12 12 13 14 14 13 12 12 12 11 10 10 10 10 10 10 9 8 7 8 9 8
13 13 12 12 11 12 13 14 14 13 12 12 11 11 10 10 10 10 10 10 10 9 9 9 10 11 11 11 10 9 8 7 6 5 5 4 3 3 4 3 2 2 3 2 1 1 1 1 3 4 4 3 3 6 8 8 9 10 10 10 12 13 13 13 13 13 13 14 15 14 12 11 10 9 9 10 10 10 10 10 10 9 8 7 7 8 7
14 14 14 13 13 13 13 13 13 13 12 11 11 11 10 9 10 10 10 10 10 11 10 10 11 12 12 12 11 10 10 9 7 5 4 5 5 5 6 6 5 4 4 3 3 3 2 3 2 2 4 4 2 1 4 7 10 11 11 10 11 13 14 15 16 16 14 13 13 13 12 11 10 10 10 11 11 11 10 10 9 8 8 8 7 7 6
15 15 15 15 14 14 14 14 13 14 14 13 13 13 12 12 13 14 13 13 13 13 12 12 13 12 12 11 11 12 11 11 10 9 7 6 7 7 8 7 7 6 5 5 4 3 4 4 3 3 4 4 4 4 6 8 10 10 11 10 10 11 13 14 13 13 12 11 11 11 11 11 11 12 12 11 10 9 10 9 6 5 6 7 7 5 4
15 15 15 15 15 15 15 14 14 14 15 15 14 15 15 15 15 16 16 15 15 15 14 13 13 12 11 10 11 12 12 11 11 11 11 10 10 9 9 8 8 8 7 6 5 4 4 4 4 5 5 5 6 7 8 8 7 7 8 9 9 9 11 11 10 9 9 10 10 10 10 10 10 10 10 10 9 10 10 8 5 4 5 6 6 6 6
14 14 14 14 14 14 14 14 14 14 14 14 14 14 15 15 14 14 14 14 14 14 14 14 14 14 13 13 13 14 13 12 11 10 11 11 11 10 9 9 9 8 8 8 7 6 5 4 3 4 5 5 7 9 8 6 5 5 6 7 8 8 9 9 9 9 10 10 10 10 10 10 10 9 9 9 9 10 9 7 5 5 5 6 6 7 6
14 14 13 13 12 11 12 13 13 13 13 13 13 13 13 14 14 13 12 12 12 13 13 14 14 14 14 14 14 14 14 13 12 11 11 11 11 10 9 9 9 8 9 9 8 7 7 6 4 4 5 5 7 8 7 6 5 5 5 6 7 8 8 8 8 9 9 9 9 10 9 8 8 7 7 7 7 7 6 7 6 6 6 6 6 6 5
12 12 12 12 11 11 11 11 11 11 12 13 13 13 13 12 12 11 10 10 10 11 13 14 13 12 11 12 12 13 13 13 13 12 11 11 11 11 10 9 8 7 8 9 8 8 8 8 6 5 6 7 8 8 6 6 7 7 6 5 5 6 6 6 6 6 7 8 8 8 8 8 7 6 6 7 7 6 7 7 7 5 5 5 5 4 5
11 10 10 10 10 10 10 10 11 11 12 12 13 13 13 12 11 9 7 7 6 7 9 12 13 12 10 10 11 11 11 11 12 12 12 11 11 11 11 11 10 8 8 8 7 6 6 6 6 6 7 8 9 9 6 4 6 6 5 4 4 4 5 5 5 5 7 8 8 7 7 8 7 6 7 8 8 5 5 5 4 4 5 6 5 5 5
10 10 10 9 8 8 9 10 11 11 11 11 11 11 11 10 9 9 9 10 8 7 8 11 13 13 12 13 14 13 12 11 11 11 11 11 10 10 11 13 13 11 10 9 8 7 6 4 4 5 5 5 6 6 3 1 2 3 2 2 4 4 4 5 5 5 7 8 7 6 6 7 6 6 6 8 7 4 2 2 3 5 8 8 8 8 8
10 10 11 10 9 9 9 10 11 12 11 10 10 10 10 9 8 9 12 13 12 10 10 12 14 13 12 13 14 14 13 12 12 13 13 13 11 10 11 13 14 13 13 10 8 8 8 6 3 2 2 4 4 3 3 3 1 1 1 1 1 1 2 3 5 6 6 6 6 5 6 7 7 5 4 4 6 7 7 6 5 6 8 8 8 8 8
10 11 11 11 11 11 10 10 11 12 10 9 9 9 9 8 8 8 10 11 11 11 11 12 12 12 10 11 13 13 13 13 13 14 14 14 13 11 10 12 13 14 14 11 8 8 10 9 6 3 1 2 2 2 5 4 1 0 2 3 3 2 3 4 5 6 7 7 6 6 6 7 8 8 6 5 6 7 7 7 6 7 8 7 7 8 8
11 11 11 10 11 11 10 10 11 11 10 9 10 10 9 9 9 9 9 9 9 10 10 10 11 12 12 11 12 12 12 13 14 14 13 13 13 11 11 12 13 13 13 11 8 8 10 11 9 7 4 2 1 3 5 5 3 2 2 3 3 3 4 4 4 4 4 4 6 8 8 8 9 9 9 8 7 7 6 6 8 9 10 9 9 9 10
11 11 10 10 10 11 11 11 11 11 10 10 10 10 9 9 8 8 8 8 8 9 9 8 10 12 12 11 10 11 11 12 13 14 14 13 13 12 11 12 12 12 11 10 9 9 9 10 10 10 8 6 4 4 6 7 5 3 3 4 4 4 5 5 5 4 5 6 6 6 7 7 7 9 10 10 10 10 10 9 9 9 11 11 11 10 10
12 13 12 11 11 11 11 10 11 11 10 10 10 10 10 9 8 8 8 9 9 9 9 9 10 12 14 13 11 11 11 11 12 13 13 13 12 12 11 12 13 14 12 11 11 11 9 8 7 6 5 5 4 5 6 7 7 6 7 7 7 6 6 5 5 5 7 8 8 7 8 8 7 8 10 11 11 11 12 12 12 12 12 12 12 12 12
Wind_Direction
226 236 238 238 233 221 221 221 217 216 219 229 236 234 230 228 236 241 226 219 235 247 255 260 248 224 231 229 192 187 207 227 229 216 190 166 157 161 169 176 183 188 193 197 196 198 201 200 201 204 205 204 206 206 205 202 200 200 201 200 201 203 205 206 210 215 218 219 221 222 224 226 225 223 221 220 221 223 225 227 226 228 235 240 241 241 240
218 226 233 241 245 238 232 229 225 221 218 221 230 239 237 231 236 244 238 230 236 236 242 254 261 265 262 239 198 193 196 208 219 201 186 198 187 165 174 183 187 191 193 195 197 198 201 202 202 204 205 204 204 205 205 203 200 200 201 200 200 202 204 205 208 214 216 217 219 220 220 223 225 224 222 220 221 223 225 228 227 224 226 231 235 238 239
229 224 223 229 239 247 250 247 239 236 234 224 216 225 237 239 239 240 238 238 242 239 238 244 247 256 265 264 237 222 206 202 213 213 208 212 200 183 189 189 190 197 196 194 199 199 201 205 204 205 206 205 204 203 204 203 201 200 201 200 199 201 203 204 207 211 215 216 217 217 217 220 223 223 221 219 220 222 223 227 229 226 224 228 232 235 238
241 237 226 219 225 236 244 247 242 240 245 240 223 215 225 237 246 244 236 231 233 231 230 235 236 235 246 256 259 253 235 215 217 217 215 213 195 183 191 195 192 197 197 196 200 202 205 207 206 206 207 206 203 201 202 203 200 200 202 200 198 200 202 203 205 209 214 215 215 215 216 217 220 221 220 219 220 221 221 225 230 229 226 228 230 232 233
233 239 238 226 223 230 233 235 237 239 246 249 245 238 229 227 232 244 248 245 246 244 234 234 237 232 233 238 244 253 252 237 230 225 219 221 209 191 194 203 203 198 197 199 201 203 207 208 208 209 208 207 205 202 202 201 198 198 202 201 198 198 200 201 203 207 212 212 212 213 214 216 217 218 219 219 220 222 221 223 227 228 227 227 229 230 228
230 229 237 238 232 233 231 229 233 238 246 247 242 239 237 231 223 222 230 236 240 246 248 246 246 247 252 248 236 245 257 255 254 252 234 228 228 213 198 200 205 200 195 199 203 205 208 210 211 210 207 208 207 204 202 199 196 197 200 199 196 196 197 199 202 205 208 208 209 210 211 213 213 213 216 218 219 220 219 221 226 229 229 228 229 230 228
230 224 227 231 230 234 242 247 241 237 245 252 254 252 248 244 241 235 228 237 238 232 233 243 255 263 268 268 251 245 256 260 257 258 252 238 234 230 208 196 198 198 196 198 203 208 210 210 209 206 205 207 206 203 202 198 194 197 199 196 194 195 196 198 201 203 204 205 207 207 208 210 210 211 214 217 219 219 218 220 226 230 229 228 229 231 231
225 219 220 227 237 241 243 249 252 245 238 241 249 255 253 251 252 260 314 319 288 278 242 228 228 236 246 255 255 244 248 259 259 254 253 249 244 241 230 210 199 197 201 205 207 211 210 204 203 204 204 204 202 202 202 197 193 196 196 194 193 194 196 198 199 200 201 202 202 204 205 206 206 209 213 217 219 219 218 219 225 229 230 229 231 233 231
217 220 223 232 246 245 238 239 245 252 250 242 244 253 256 261 265 275 328 328 330 345 312 250 235 241 235 231 239 237 236 246 253 255 257 257 256 253 248 243 233 219 215 214 213 213 208 200 200 202 201 200 199 199 198 194 192 193 194 193 193 194 195 196 196 197 198 199 199 201 202 202 203 208 213 217 219 219 218 217 220 226 229 231 235 236 230
209 215 227 231 233 232 225 212 181 112 80 19 19 351 286 297 316 337 359 341 335 339 325 323 342 316 266 227 225 231 232 234 238 247 253 256 259 259 254 254 251 234 218 212 211 212 210 204 200 199 197 196 197 196 194 191 189 190 192 191 191 191 192 193 194 194 195 196 197 198 199 199 200 204 208 212 215 217 220 218 220 224 225 227 231 229 224
205 207 222 226 230 231 209 176 137 112 148 68 41 318 265 360 14 10 12 354 339 344 337 337 353 344 301 286 245 234 235 234 233 241 247 246 248 250 249 251 250 234 214 208 208 207 205 201 197 196 195 194 195 194 191 188 187 187 188 189 190 190 189 189 190 189 189 191 193 195 195 193 193 196 198 200 205 213 218 218 222 228 227 226 229 228 229
216 214 222 226 234 223 177 167 160 154 167 136 84 236 239 26 18 10 12 0 352 358 348 337 334 318 309 315 298 281 264 243 237 245 250 247 242 238 239 245 244 227 209 204 201 198 199 199 195 193 191 190 193 193 188 184 184 184 184 185 187 186 182 179 180 180 182 186 188 188 187 184 186 192 195 196 203 212 216 216 221 229 230 230 233 235 237
224 222 225 233 237 201 164 178 193 154 153 192 222 221 193 14 358 360 359 348 351 353 342 338 332 314 312 309 301 298 291 274 262 258 259 268 262 244 239 241 229 205 193 192 194 195 199 197 191 188 188 188 190 190 184 180 181 182 183 180 177 175 171 170 172 173 178 184 184 183 183 184 189 196 198 201 209 213 215 216 218 221 223 225 226 226 229
220 224 230 236 233 207 192 197 191 175 191 216 217 126 38 8 356 1 355 346 352 352 339 331 323 314 315 312 304 297 293 297 304 285 257 261 295 274 244 225 204 190 182 182 190 194 193 190 187 185 184 185 187 186 182 179 178 178 177 173 169 167 165 163 164 167 172 176 177 180 185 189 191 195 199 206 214 215 214 215 214 213 215 216 214 212 214
216 220 223 228 232 219 211 203 188 188 210 169 51 32 30 29 15 7 4 0 357 348 337 328 319 315 318 318 310 300 293 298 315 304 251 227 235 292 228 188 184 186 182 183 188 187 182 182 182 181 181 182 183 181 178 174 171 169 167 166 164 163 161 160 160 163 167 170 174 181 189 193 193 196 203 212 218 217 213 208 204 207 209 207 206 207 204
223 224 223 228 248 206 193 184 154 111 89 72 52 26 33 44 26 15 11 6 359 349 338 328 319 313 317 323 319 310 305 304 306 300 256 208 197 193 158 153 164 172 174 177 178 175 174 176 176 178 180 180 177 174 171 167 164 162 161 160 160 160 159 160 161 164 168 172 178 185 190 191 192 197 208 214 215 219 221 211 199 201 204 202 197 192 195
204 215 257 90 80 123 156 147 125 108 91 72 55 45 50 48 30 24 19 8 5 4 356 347 341 335 332 338 344 345 356 12 27 246 233 182 177 170 160 157 156 156 162 167 168 169 171 172 172 175 177 174 169 166 164 161 158 156 156 158 160 161 161 163 165 167 169 174 180 185 188 190 191 198 209 214 214 219 220 207 194 193 196 196 192 190 200
64 48 34 54 67 78 114 121 116 111 100 82 72 68 64 63 59 54 48 36 29 28 23 14 9 5 359 357 359 2 5 8 4 316 291 211 159 156 157 158 157 156 157 160 162 162 163 165 168 169 169 167 162 157 155 154 153 154 156 158 159 160 160 162 166 168 172 178 183 185 189 192 194 201 210 212 214 217 208 191 187 191 192 194 193 193 202
25 28 18 39 43 38 94 111 91 83 90 92 89 86 80 77 75 66 59 54 48 42 37 30 25 22 18 13 11 12 13 16 14 298 277 266 183 159 157 157 159 162 162 161 160 158 158 161 161 159 159 159 155 151 151 152 154 155 155 155 156 158 160 163 167 172 178 182 181 179 182 185 189 196 201 199 200 203 195 187 189 194 196 199 199 199 206
76 108 335 52 62 51 52 74 75 72 79 80 77 80 84 84 80 72 64 59 55 49 42 37 36 36 31 24 19 16 14 17 30 36 228 218 185 144 154 157 159 160 159 158 156 152 150 150 152 154 155 153 149 148 150 152 152 151 151 154 157 160 162 164 168 174 178 179 174 171 173 176 180 183 180 178 185 191 192 193 195 196 198 203 208 211 213
97 139 239 77 82 69 57 64 72 73 76 75 71 72 75 77 76 73 68 64 60 56 50 46 45 44 38 32 29 28 24 21 27 46 100 144 154 155 138 140 144 145 145 144 141 137 136 140 146 149 148 143 143 146 148 149 150 151 153 156 159 161 162 163 166 169 171 169 166 167 170 174 178 176 170 174 186 194 196 200 201 202 204 207 211 213 208
122 123 181 73 91 84 55 53 62 71 76 77 76 73 70 68 68 69 69 66 63 59 54 50 49 48 44 41 37 32 26 24 38 56 69 100 128 137 129 119 122 126 128 128 127 126 128 133 136 134 132 133 138 142 142 144 149 153 154 155 157 158 156 154 157 158 157 158 163 168 174 177 180 180 178 181 191 198 200 204 208 209 209 210 210 205 196
116 83 80 84 97 99 68 45 50 62 70 74 76 75 73 70 66 65 65 63 60 57 52 50 49 47 45 45 43 37 30 25 39 60 74 88 100 111 118 116 114 114 114 116 118 118 120 124 124 123 126 131 134 137 139 143 148 152 152 152 152 151 151 154 156 150 149 155 163 169 177 182 186 188 187 187 195 202 203 206 211 213 212 210 208 205 199
122 107 94 91 93 94 83 61 53 55 61 68 70 69 71 72 68 65 65 62 60 58 55 52 53 51 46 45 45 42 38 33 33 46 69 88 93 96 99 99 100 101 102 105 108 110 113 116 116 118 123 129 135 139 140 143 147 148 147 146 144 145 152 157 146 141 153 166 171 174 181 187 192 196 196 194 199 205 207 209 211 211 212 211 209 210 207
127 119 101 96 94 91 86 77 64 58 64 70 66 61 64 69 69 67 65 62 61 63 61 60 62 58 51 46 43 41 42 41 35 36 46 59 69 76 79 80 83 87 91 96 100 105 109 112 114 118 122 127 134 137 137 142 147 144 142 143 145 153 163 154 133 145 168 179 179 182 185 184 191 202 205 203 205 210 214 217 215 209 209 209 208 210 208
122 119 99 96 97 93 87 80 68 59 64 72 68 61 60 66 71 70 68 64 61 59 60 61 62 62 60 55 47 41 41 42 37 34 37 43 48 53 60 68 76 82 89 94 97 101 105 108 111 115 116 118 124 132 139 144 141 136 142 152 157 168 176 162 149 163 180 185 184 188 185 180 188 200 206 208 212 216 219 221 220 212 207 206 207 208 208
117 126 104 92 93 84 80 84 80 67 61 66 70 65 63 70 75 71 67 64 57 49 47 47 46 49 56 58 52 43 40 41 40 35 31 33 39 43 49 59 69 78 87 92 93 94 97 101 105 107 108 115 127 135 142 147 142 141 156 171 173 178 182 173 167 176 184 185 185 183 177 177 183 190 195 200 207 215 222 224 222 216 209 207 208 208 209
92 102 87 80 84 78 74 85 92 79 67 65 66 64 64 74 75 66 59 57 50 40 35 31 29 34 41 44 43 38 33 33 36 33 27 27 38 49 54 56 57 63 72 78 83 89 94 97 100 100 99 117 136 142 147 152 153 156 167 174 175 177 179 177 178 178 173 171 174 170 162 162 165 170 180 185 192 207 218 217 218 218 214 210 210 209 209
80 85 81 79 82 80 75 76 81 80 74 69 66 64 66 69 68 62 58 56 55 49 37 27 23 27 33 32 32 34 32 28 28 27 23 21 29 47 54 53 52 56 62 64 67 79 92 96 93 89 92 112 134 153 161 162 164 168 175 179 180 178 173 170 173 173 166 162 167 170 162 155 157 167 176 178 182 193 194 193 206 217 215 211 211 210 208
84 88 91 88 84 82 77 72 73 76 75 71 68 67 68 69 67 62 58 57 59 57 45 30 22 23 28 29 27 31 36 33 28 25 21 16 17 26 35 37 40 49 56 59 57 58 68 80 82 88 107 126 155 191 180 176 179 181 182 184 184 178 171 167 168 170 167 164 168 171 166 162 167 176 181 181 183 183 182 189 204 215 210 207 210 210 208
89 87 87 85 81 78 74 71 73 74 72 70 70 68 66 68 69 65 58 54 55 52 42 30 22 22 29 34 32 30 31 31 28 24 16 12 15 20 19 19 21 23 32 52 59 57 63 73 72 91 118 131 162 176 169 175 180 176 172 173 173 172 172 170 169 171 171 173 177 177 172 171 176 179 182 184 182 180 183 190 200 209 206 201 200 203 207
84 77 73 72 72 73 72 71 71 70 67 65 63 61 59 60 62 61 56 51 48 45 41 35 28 24 28 34 36 35 33 28 21 13 6 7 13 12 6 9 15 4 360 45 67 68 78 76 54 114 156 156 168 170 168 173 173 169 170 175 175 175 175 173 170 169 173 180 184 179 173 174 178 178 180 181 179 179 181 181 183 197 200 189 193 206 212
70 65 60 60 64 67 69 69 70 70 69 65 61 59 58 58 59 59 60 60 58 56 53 48 39 31 31 36 39 42 39 29 14 4 359 359 359 356 354 357 359 350 341 354 61 98 100 74 31 214 190 182 174 174 184 188 181 177 183 186 183 182 182 177 172 173 177 183 183 177 174 178 180 179 179 177 176 183 186 182 182 189 182 177 196 214 214
68 68 63 62 64 66 69 72 73 73 72 69 66 63 60 60 63 63 62 64 64 61 57 53 48 44 42 40 42 48 47 35 20 9 359 351 347 352 0 3 1 358 352 344 345 120 118 352 297 248 212 197 185 183 194 198 190 185 189 192 192 191 189 186 183 180 180 181 180 177 179 183 179 176 177 175 175 182 186 182 182 182 174 177 197 211 204
70 71 69 68 67 67 70 74 74 73 73 73 71 68 64 62 64 63 61 61 61 57 52 48 46 48 45 39 38 46 52 44 34 25 11 358 360 16 22 12 8 15 2 341 334 343 233 251 249 240 227 211 200 201 206 206 199 191 189 196 202 198 193 193 193 186 181 182 180 176 178 182 179 175 175 174 173 177 180 176 175 177 178 183 194 202 203
71 70 68 68 67 66 67 69 70 72 75 74 72 70 69 69 66 59 57 61 62 57 53 50 49 50 49 43 40 44 49 43 37 33 25 15 20 34 34 15 7 15 10 336 16 9 252 237 236 234 223 203 201 213 208 201 196 191 191 197 199 191 187 192 194 188 185 186 182 176 175 177 177 175 174 170 169 173 177 175 173 179 188 195 202 208 215
74 71 69 70 69 66 67 69 72 73 74 73 71 69 68 69 66 59 59 62 61 57 56 56 55 55 57 56 56 60 62 53 42 37 43 43 34 32 30 21 24 29 52 153 160 208 251 242 235 231 216 193 200 220 213 197 189 192 197 198 193 183 179 182 186 188 188 184 181 180 178 173 170 171 169 166 166 172 176 177 176 180 192 207 214 214 220
74 72 73 74 71 69 69 72 73 73 71 69 68 66 64 64 63 62 61 60 56 53 57 59 58 61 64 62 59 58 60 59 55 52 55 62 59 50 53 174 34 25 22 116 202 249 274 265 213 204 194 177 207 225 221 207 195 193 196 194 186 179 177 177 178 183 183 176 174 177 172 162 161 165 165 165 172 178 181 182 179 176 184 202 214 219 229
75 75 77 77 75 73 74 73 71 71 70 68 66 63 62 62 63 62 61 58 52 49 51 53 56 62 65 61 56 57 56 53 57 66 63 50 49 61 68 75 72 16 358 356 345 327 8 90 130 158 158 152 202 227 222 207 189 183 183 183 177 173 173 174 172 169 165 163 165 165 161 157 162 163 162 168 174 173 173 179 181 178 182 197 212 223 229
74 74 75 76 77 76 76 75 73 71 69 67 66 66 66 67 67 64 62 60 58 53 49 48 52 58 57 51 49 55 57 50 48 59 69 68 74 79 74 67 56 34 26 44 57 55 64 83 96 122 132 130 133 176 182 176 170 163 159 165 171 170 169 171 170 165 157 153 156 159 162 167 174 172 170 173 173 168 168 177 182 182 189 203 218 233 239
74 73 72 74 76 76 76 78 78 76 73 69 67 66 66 67 68 66 62 61 60 56 51 50 51 53 53 50 48 51 54 53 53 56 61 69 76 76 67 56 46 37 39 55 69 63 59 66 76 86 99 110 119 122 134 148 154 147 141 145 154 156 158 163 167 165 161 158 160 164 170 179 185 185 180 176 174 173 172 171 170 182 195 202 207 215 226
74 73 72 73 73 74 77 78 75 74 74 72 68 66 65 63 64 63 61 59 58 54 51 49 47 45 51 59 58 53 50 49 52 55 57 61 66 68 62 55 51 50 49 51 59 64 58 61 83 92 92 107 128 128 124 127 133 134 138 144 146 147 153 158 159 160 162 164 166 171 178 182 184 185 181 176 177 183 180 171 171 201 210 208 212 216 220
70 70 71 72 72 74 77 77 74 72 71 67 65 66 66 62 61 63 62 60 58 55 53 50 45 43 47 55 57 55 52 49 48 51 55 56 58 59 59 55 50 49 52 55 59 59 49 47 90 111 108 123 139 134 121 111 112 125 140 148 149 150 154 159 163 169 173 173 175 179 182 179 177 183 188 184 180 183 183 180 189 212 220 217 218 222 227
68 68 68 70 72 71 73 75 74 73 71 68 64 64 63 61 59 59 59 59 58 57 55 53 51 48 48 49 50 50 50 49 48 49 53 54 51 49 53 56 48 42 46 50 46 41 42 50 85 119 120 123 130 127 116 107 114 131 142 147 151 156 160 163 171 178 177 171 172 177 176 169 168 179 194 199 195 194 193 192 200 217 227 222 217 224 241
69 69 71 74 74 69 69 71 72 72 73 71 65 59 59 61 59 55 54 57 59 57 55 53 50 50 50 51 51 50 50 50 48 45 46 48 45 40 42 46 43 41 48 46 36 33 47 60 75 104 119 113 104 99 99 104 110 117 124 131 142 154 157 154 158 165 163 162 169 176 177 175 176 181 187 191 195 199 196 190 192 204 211 207 211 239 268
73 70 73 77 77 73 70 69 66 66 68 67 63 59 58 58 58 57 58 61 64 65 58 49 44 46 50 50 46 44 46 48 46 39 36 39 41 39 36 33 31 38 48 45 37 40 55 64 72 95 116 112 94 84 81 87 94 99 114 135 142 146 153 152 151 153 158 164 171 176 176 181 195 208 198 186 182 181 183 185 188 197 204 211 227 248 259
77 76 76 75 74 75 76 75 71 66 61 57 58 57 52 45 42 39 33 32 43 67 72 58 50 52 57 54 45 39 37 38 38 34 31 32 36 37 29 21 20 28 34 28 24 34 46 53 72 97 119 126 106 87 72 67 86 84 98 133 128 128 145 161 162 158 157 164 177 188 189 193 210 221 199 182 179 186 218 261 276 254 241 247 259 262 261
69 72 75 74 68 65 67 71 71 67 58 51 50 49 41 37 36 29 21 23 35 54 64 58 51 49 50 48 43 39 36 33 32 29 26 24 25 25 16 7 7 19 26 17 5 12 23 28 40 82 130 141 117 60 352 316 277 139 219 217 184 181 190 178 177 179 175 175 185 198 202 212 230 241 227 208 216 223 223 233 255 259 251 249 252 254 261
58 59 63 66 64 60 57 57 58 57 51 44 39 33 27 29 38 38 28 22 25 34 41 42 39 35 32 32 33 33 32 30 28 25 19 13 9 9 8 3 360 6 14 12 355 348 357 4 6 1 231 180 159 347 332 325 331 222 239 240 237 232 208 186 186 193 194 197 208 217 220 228 240 248 256 264 260 242 223 219 235 251 252 249 248 254 263
51 48 46 53 59 57 52 49 46 43 38 30 23 17 16 22 33 39 32 18 14 21 29 32 28 24 19 17 19 20 19 19 20 19 12 2 355 355 2 5 1 358 1 3 354 341 339 343 346 348 336 292 278 313 315 315 325 321 269 252 254 254 246 236 221 205 200 211 224 224 218 218 226 234 239 248 256 255 244 238 242 250 258 264 267 265 266
43 42 41 47 53 53 51 47 43 39 34 27 21 19 19 16 17 24 25 16 11 13 15 14 13 13 12 10 11 9 5 3 6 7 4 2 1 359 355 355 356 358 358 355 348 340 338 341 347 349 344 334 323 316 303 296 291 275 243 233 236 253 272 279 276 258 246 245 242 234 228 227 226 229 233 239 246 251 250 249 249 254 262 270 273 268 264
45 44 44 46 48 50 50 44 38 34 31 26 23 22 16 5 1 9 20 21 14 8 6 1 358 360 3 6 5 0 356 357 358 356 355 1 9 8 359 353 356 2 3 357 347 342 345 353 359 358 349 334 324 314 303 295 290 282 269 259 250 242 245 254 260 261 262 260 258 257 262 265 260 252 247 247 249 251 251 251 255 258 261 263 267 267 264